This is the latest recevied weather packets stored in our database for station/object VE7PRT-1. If no packets are shown the sender has not sent any weather packets the latest 10 day(s).
| Time | Temp. | Humidity | Pressure | Rain* | Wind** | Luminosity | Snow |
|---|---|---|---|---|---|---|---|
| 1787536631 | 17.22° C | 98% | 1021.7 hPa | 0 mm | - | - | - |
| 1787535841 | 17.22° C | 96% | 1021.6 hPa | 0 mm | - | - | - |
| 1787535051 | 18.33° C | 94% | 1021.6 hPa | 0 mm | - | - | - |
| 1787534276 | 18.89° C | 94% | 1021.5 hPa | 0 mm | - | - | - |
| 1787533461 | 18.89° C | 94% | 1021.5 hPa | 0 mm | - | - | - |
| 1787532736 | 18.89° C | 95% | 1021.5 hPa | 0 mm | - | - | - |
| 1787531925 | 18.89° C | 95% | 1021.5 hPa | 0 mm | - | - | - |
| 1787531181 | 18.33° C | 97% | 1021.7 hPa | 0 mm | - | - | - |
| 1787530351 | 17.78° C | 97% | 1021.7 hPa | 0 mm | - | - | - |
| 1787529482 | 17.78° C | 97% | 1021.7 hPa | 0 mm | - | - | - |
| 1787528635 | 17.78° C | 97% | 1021.6 hPa | 0 mm | - | - | - |
| 1787527846 | 17.78° C | 97% | 1021.8 hPa | 0 mm | - | - | - |
| 1787527025 | 17.78° C | 97% | 1021.9 hPa | 0 mm | - | - | - |
| 1787526151 | 17.78° C | 96% | 1021.7 hPa | 0 mm | - | - | - |
| 1787525426 | 17.78° C | 96% | 1021.8 hPa | 0 mm | - | - | - |
| 1787524685 | 18.33° C | 96% | 1021.7 hPa | 0 mm | - | - | - |
| 1787523807 | 18.33° C | 97% | 1021.6 hPa | 0 mm | - | - | - |
| 1787522961 | 18.33° C | 97% | 1021.7 hPa | 0 mm | - | - | - |
| 1787522116 | 18.33° C | 97% | 1021.6 hPa | 0 mm | - | - | - |
| 1787521365 | 18.33° C | 98% | 1021.5 hPa | 0 mm | - | - | - |
| 1787520511 | 17.78° C | 99% | 1021.4 hPa | 0 mm | - | - | - |
| 1787519665 | 17.78° C | 99% | 1021.5 hPa | 0 mm | - | - | - |
| 1787518896 | 17.22° C | 98% | 1021.5 hPa | 0 mm | - | - | - |
| 1787518001 | 16.67° C | 98% | 1021.5 hPa | 0 mm | - | - | - |
| 1787517281 | 16.67° C | 97% | 1021.4 hPa | 0 mm | - | - | - |
* Rain latest hour (hover to see other rain measurements)
** Current wind speed in m/s (hover to see current wind gust speed)